Regional Weather Roundup
Issued by NWS

Home | Current Version | Previous Version | Graphics & Text | Print | Product List | Glossary On
Versions: 1 2 3 4 5 6 7 8 9 10 11 12 13 14 15 16 17 18 19 20 21 22 23 24 25 26 27 28 29 30 31 32 33 34 35 36 37 38 39 40 41 42 43 44 45 46 47 48 49 50
000
ASUS45 KPSR 291500
RWRAZ

PRELIMINARY ARIZONA REGIONAL HOURLY WEATHER ROUNDUP
NATIONAL WEATHER SERVICE PHOENIX AZ
800 AM MST TUE JUL 29 2014

NOTE: FAIR INDICATES FEW OR NO CLOUDS BELOW 12,000 FEET WITH NO
SIGNIFICANT WEATHER AND/OR OBSTRUCTIONS TO VISIBILITY.

AZZ001>003-036-291600-
NORTHWEST ARIZONA

CITY           SKY/WX    TMP DP  RH WIND       PRES   REMARKS
KINGMAN        SUNNY     80  57  45 CALM      30.15R
$$

AZZ004>008-015-016-018-291600-
NORTH CENTRAL ARIZONA

CITY           SKY/WX    TMP DP  RH WIND       PRES   REMARKS
GRAND CANYON   SUNNY     70  52  52 CALM      30.39R
WILLIAMS       SUNNY     66  55  68 CALM      30.45S
PRESCOTT       SUNNY     70  59  68 CALM      30.28R
FLAGSTAFF      SUNNY     68  52  56 CALM      30.42S
PAYSON         SUNNY     77  54  44 CALM      30.30S
PAGE           SUNNY     79  53  40 CALM      30.22R
$$

AZZ009>014-017-291600-
NORTHEAST ARIZONA

CITY           SKY/WX    TMP DP  RH WIND       PRES   REMARKS
WINSLOW        NOT AVBL
SAINT JOHNS    SUNNY     72  56  57 CALM      30.32S
WINDOW ROCK    SUNNY     67  57  70 CALM      30.40S
$$

AZZ023-291600-
GREATER PHOENIX AREA

CITY           SKY/WX    TMP DP  RH WIND       PRES   REMARKS
PHOENIX        MOSUNNY   94  59  31 N6        29.97R
BUCKEYE          N/A     91  59  33 SE3       29.98R
GLENDALE       MOSUNNY   91  61  35 SW5       29.98R
DEER VALLEY    SUNNY     90  59  35 SE5       29.99R
SCOTTSDALE     SUNNY     92  60  34 VRB5      30.01R
MESA-GATEWAY   MOSUNNY   88  64  45 E6        30.01R
CHANDLER       MOSUNNY   90  64  43 CALM      29.99R
$$

AZZ027-028-291600-
SOUTHWEST MARICOPA COUNTY AND PINAL COUNTY

CITY           SKY/WX    TMP DP  RH WIND       PRES   REMARKS
CASA GRANDE    SUNNY     90  57  33 CALM      30.02R
GILA BEND      SUNNY     95  55  26 SW3       29.97R
$$

AZZ503-504-507>509-291600-
SOUTHEAST ARIZONA

CITY           SKY/WX    TMP DP  RH WIND       PRES   REMARKS
TUCSON         SUNNY     83  64  52 CALM      30.11S
DAVIS-MONTHAN  SUNNY     83  64  51 VRB3      30.10R
RYAN FIELD       N/A     82  64  54 CALM      30.10R
NOGALES        SUNNY     77  62  59 S3        30.20R
SIERRA VISTA   PTSUNNY   81  59  47 W5        30.26R
SAFFORD        SUNNY     81  62  52 CALM      30.13R
$$

AZZ020-021-025-026-031-291600-
SOUTHWEST ARIZONA

CITY           SKY/WX    TMP DP  RH WIND       PRES   REMARKS
YUMA           MOSUNNY   91  62  37 CALM      29.91S
$$

CAZ031-033-041-043-047-048-061-291600-
SOUTHERN CALIFORNIA

CITY           SKY/WX    TMP DP  RH WIND       PRES   REMARKS
DOWNTOWN L.A.  SUNNY     74  62  66 CALM      30.03R
L.A. AIRPORT   MOSUNNY   70  64  81 SW7       30.05R
SAN DIEGO      MOSUNNY   75  64  68 NW3       30.04R
BURBANK        SUNNY     73  50  44 CALM      30.05R
ONTARIO        MOSUNNY   78  41  26 CALM      30.05R
RIVERSIDE      MOSUNNY   77  36  22 CALM      30.05R
PALM SPRINGS   SUNNY     90  52  27 S3        29.96R
EL CENTRO NAS  MOSUNNY   93  51  23 W6        29.89S
IMPERIAL       SUNNY     92  53  26 NW3       29.89R
BLYTHE           N/A    N/A N/A N/A MISG      29.92R
$$

NVZ020-UTZ003-291600-
SOUTHERN NEVADA-UTAH

CITY           SKY/WX    TMP DP  RH WIND       PRES   REMARKS
LAS VEGAS      NOT AVBL
SALT LAKE CITY LGT RAIN  68  64  87 VRB5      30.20R
$$

NMZ009-TXZ055-291600-
NEW MEXICO-WEST TEXAS

CITY           SKY/WX    TMP DP  RH WIND       PRES   REMARKS
ALBUQUERQUE    PTSUNNY   69  61  75 S5        30.34R
EL PASO        CLOUDY    70  66  87 N10       30.23R
$$


........................KEY........................
SKY/WX - SKY CONDITION/WEATHER
TMP    - TEMPERATURE IN FAHRENHEIT
DP     - DEW POINT IN FAHRENHEIT
RH     - RELATIVE HUMIDITY IN PERCENT
WIND   - DIRECTION AND SPEED IN MILES PER HOUR (MPH)
VRB    - VARIABLE WIND DIRECTION
PRES   - MEAN SEA LEVEL PRESSURE IN INCHES OF MERCURY
         F - FALLING PRESSURE   R - RISING PRESSURE
         S - STEADY PRESSURE
VSB    - VISIBILITY IN MILES
HX     - HEAT INDEX IN FAHRENHEIT
WCI    - WIND CHILL INDEX IN FAHRENHEIT
TC     - TEMPERATURE IN CELSIUS WHICH IS ALSO KNOWN AS
         TEMPERATURE IN CENTIGRADE
AFB    - AIR FORCE BASE
         LUKE AFB IS LUKE AIR FORCE BASE
         DAVIS-MONTHAN IS DAVIS-MONTHAN AIR FORCE BASE
NAS    - NAVAL AIR STATION
         EL CENTRO NAS IS EL CENTRO NAVAL AIR STATION
N/A    - NOT AVAILABLE


USA.gov is the U.S. government's official web portal to all federal, state and local government web resources and services.